RYR93QL EBCI-LEGE

Flight info

Callsign RYR93QL
Flight time N/A
Altitude 31000
Route CIV N872 LESDO DCT KOVIN DCT DUCRA UM728 RESMI UN857 DISAK/N0456F330 DCT DIRMO DCT VALKU DCT ATSUP DCT MINSO DCT DEGOL DCT PPG A27 KANIG
Aircraft B738/M-SDE2E3FGHIRWXY/LB1

Departure

Time 2026-05-07 17:43
Airport Brussels South Charleroi Airport (EBCI)

Arrival

Time N/A
Airport Girona-Costa Brava Airport (LEGE)
Time Latitude Longitude Altitude Speed Heading
2026-05-07 17:06 50.46973 4.47464 607 ft 0 kts 335°
2026-05-07 17:33 50.46968 4.47468 618 ft 4 kts 336°
2026-05-07 17:33 50.46943 4.47480 623 ft 4 kts 358°
2026-05-07 17:33 50.46920 4.47472 623 ft 4 kts 50°
2026-05-07 17:34 50.46916 4.47463 622 ft 1 kts 65°
2026-05-07 17:38 50.46920 4.47480 623 ft 2 kts 67°
2026-05-07 17:38 50.46928 4.47505 613 ft 3 kts 64°
2026-05-07 17:38 50.46933 4.47531 618 ft 3 kts 77°
2026-05-07 17:38 50.46934 4.47561 613 ft 3 kts 94°
2026-05-07 17:39 50.46923 4.47597 618 ft 4 kts 131°
2026-05-07 17:39 50.46893 4.47629 614 ft 6 kts 149°
2026-05-07 17:39 50.46854 4.47660 613 ft 6 kts 157°
2026-05-07 17:39 50.46816 4.47685 612 ft 1 kts 157°
2026-05-07 17:41 50.46806 4.47691 614 ft 4 kts 159°
2026-05-07 17:41 50.46760 4.47714 609 ft 9 kts 162°
2026-05-07 17:41 50.46697 4.47723 606 ft 9 kts 212°
2026-05-07 17:42 50.46665 4.47629 613 ft 13 kts 246°
2026-05-07 17:42 50.46604 4.47416 612 ft 43 kts 245°
2026-05-07 17:42 50.46377 4.46628 617 ft 112 kts 245°
2026-05-07 17:42 50.45972 4.45242 629 ft 165 kts 246°
2026-05-07 17:43 50.45458 4.43454 951 ft 189 kts 246°
2026-05-07 17:43 50.44921 4.41515 1564 ft 202 kts 248°
2026-05-07 17:43 50.44404 4.39470 2334 ft 203 kts 249°
2026-05-07 17:43 50.43896 4.37368 2804 ft 213 kts 249°
2026-05-07 17:44 50.43373 4.35173 3332 ft 219 kts 250°
2026-05-07 17:44 50.42697 4.32906 3507 ft 240 kts 239°
2026-05-07 17:44 50.41872 4.30603 3636 ft 243 kts 242°
2026-05-07 17:44 50.41131 4.28224 3784 ft 243 kts 247°
2026-05-07 17:45 50.40883 4.25639 3906 ft 242 kts 280°
2026-05-07 17:45 50.41415 4.23124 3992 ft 247 kts 297°
2026-05-07 17:45 50.42286 4.20798 4001 ft 245 kts 303°
2026-05-07 17:45 50.43215 4.18558 3996 ft 245 kts 304°
2026-05-07 17:46 50.44136 4.16352 3991 ft 244 kts 304°
2026-05-07 17:46 50.45060 4.14113 3991 ft 243 kts 303°
2026-05-07 17:46 50.45968 4.11893 3989 ft 242 kts 303°
2026-05-07 17:46 50.46872 4.09668 3986 ft 241 kts 303°
2026-05-07 17:47 50.47769 4.07448 3980 ft 241 kts 303°
2026-05-07 17:47 50.48666 4.05219 3987 ft 241 kts 303°
2026-05-07 17:47 50.49562 4.02984 3994 ft 242 kts 303°
2026-05-07 17:47 50.50465 4.00728 4014 ft 248 kts 302°
2026-05-07 17:48 50.51416 3.98350 4366 ft 265 kts 302°
2026-05-07 17:48 50.52408 3.95866 5454 ft 270 kts 302°
2026-05-07 17:48 50.53403 3.93372 6667 ft 271 kts 302°
2026-05-07 17:48 50.54402 3.90869 7735 ft 275 kts 301°
2026-05-07 17:49 50.55342 3.88236 8756 ft 279 kts 288°
2026-05-07 17:49 50.55517 3.85214 9813 ft 281 kts 259°
2026-05-07 17:49 50.54771 3.82368 10654 ft 290 kts 233°
2026-05-07 17:49 50.53173 3.80238 10941 ft 318 kts 207°
2026-05-07 17:50 50.51066 3.78735 11177 ft 346 kts 204°
2026-05-07 17:50 50.48778 3.77236 11597 ft 363 kts 203°
2026-05-07 17:50 50.46415 3.75700 12384 ft 369 kts 203°
2026-05-07 17:50 50.44039 3.74134 13269 ft 372 kts 204°
2026-05-07 17:51 50.41670 3.72550 14083 ft 375 kts 204°
2026-05-07 17:51 50.39264 3.70925 14799 ft 379 kts 204°
2026-05-07 17:51 50.36829 3.69272 15511 ft 383 kts 205°
2026-05-07 17:51 50.34366 3.67598 16223 ft 386 kts 205°
2026-05-07 17:52 50.31882 3.65915 16921 ft 390 kts 205°
2026-05-07 17:52 50.29379 3.64220 17559 ft 394 kts 205°
2026-05-07 17:52 50.26842 3.62505 18177 ft 398 kts 205°
2026-05-07 17:52 50.24315 3.60801 18723 ft 402 kts 205°
2026-05-07 17:53 50.21741 3.59065 19269 ft 404 kts 205°
2026-05-07 17:53 50.19146 3.57316 19814 ft 406 kts 205°
2026-05-07 17:53 50.16529 3.55557 20331 ft 409 kts 205°
2026-05-07 17:53 50.13913 3.53798 20816 ft 412 kts 205°
2026-05-07 17:54 50.11268 3.52023 21324 ft 414 kts 205°
2026-05-07 17:54 50.08605 3.50241 21782 ft 417 kts 205°
2026-05-07 17:54 50.05926 3.48451 22221 ft 420 kts 205°
2026-05-07 17:54 50.03234 3.46655 22645 ft 422 kts 205°
2026-05-07 17:55 50.00556 3.44872 23051 ft 425 kts 205°
2026-05-07 17:55 49.97825 3.43056 23442 ft 427 kts 205°
2026-05-07 17:55 49.95084 3.41236 23803 ft 430 kts 205°
2026-05-07 17:55 49.92329 3.39409 24134 ft 431 kts 205°
2026-05-07 17:56 49.89563 3.37577 24458 ft 433 kts 205°
2026-05-07 17:56 49.86779 3.35737 24773 ft 435 kts 205°
2026-05-07 17:56 49.83989 3.33894 25067 ft 437 kts 205°
2026-05-07 17:56 49.81188 3.32042 25358 ft 439 kts 205°
2026-05-07 17:57 49.78368 3.30179 25645 ft 441 kts 205°
2026-05-07 17:57 49.76504 3.28942 25826 ft 442 kts 205°
2026-05-07 17:57 49.72716 3.26430 26206 ft 444 kts 205°
2026-05-07 17:57 49.69870 3.24547 26468 ft 446 kts 205°
2026-05-07 17:58 49.67006 3.22657 26752 ft 447 kts 205°
2026-05-07 17:58 49.64171 3.20791 27032 ft 449 kts 205°
2026-05-07 17:58 49.61287 3.18896 27289 ft 451 kts 205°
2026-05-07 17:58 49.58383 3.16992 27541 ft 452 kts 205°
2026-05-07 17:59 49.55481 3.15091 27800 ft 454 kts 205°
2026-05-07 17:59 49.52572 3.13186 28118 ft 454 kts 205°
2026-05-07 17:59 49.49665 3.11277 28551 ft 452 kts 206°
2026-05-07 17:59 49.46886 3.09074 28984 ft 448 kts 214°
2026-05-07 18:00 49.44286 3.06433 29387 ft 446 kts 216°
2026-05-07 18:00 49.41753 3.03784 29738 ft 446 kts 216°
2026-05-07 18:00 49.39181 3.01096 30108 ft 446 kts 216°
2026-05-07 18:00 49.36611 2.98437 30457 ft 445 kts 215°
2026-05-07 18:01 49.34037 2.95801 30824 ft 443 kts 215°
2026-05-07 18:01 49.31469 2.93193 31167 ft 442 kts 215°
2026-05-07 18:01 49.28902 2.90598 31500 ft 442 kts 215°
2026-05-07 18:01 49.26332 2.88009 31865 ft 441 kts 215°
2026-05-07 18:02 49.21218 2.82869 32566 ft 438 kts 215°
2026-05-07 18:02 49.18671 2.80313 32919 ft 437 kts 215°
2026-05-07 18:02 49.16121 2.77756 33038 ft 441 kts 215°
2026-05-07 18:03 49.13550 2.75181 33049 ft 442 kts 215°
2026-05-07 18:03 49.08448 2.70082 33038 ft 438 kts 215°
2026-05-07 18:04 49.03371 2.65022 33043 ft 435 kts 215°
2026-05-07 18:04 48.98035 2.60666 33052 ft 438 kts 198°
2026-05-07 18:05 48.91939 2.59691 33056 ft 444 kts 180°
2026-05-07 18:05 48.85800 2.60238 33030 ft 445 kts 179°
2026-05-07 18:06 48.79612 2.60803 33015 ft 445 kts 179°
2026-05-07 18:06 48.73418 2.61323 33009 ft 445 kts 180°
2026-05-07 18:07 48.67255 2.61813 33026 ft 446 kts 180°
2026-05-07 18:07 48.61050 2.62298 33014 ft 446 kts 180°
2026-05-07 18:08 48.54946 2.62775 33026 ft 446 kts 180°
2026-05-07 18:08 48.48740 2.63258 33009 ft 447 kts 180°
2026-05-07 18:09 48.43570 2.63661 33023 ft 447 kts 180°
2026-05-07 18:09 48.37350 2.64144 33013 ft 447 kts 180°
2026-05-07 18:10 48.31133 2.64626 33009 ft 447 kts 180°
2026-05-07 18:10 48.24951 2.65104 33014 ft 447 kts 180°
2026-05-07 18:11 48.18744 2.65583 33001 ft 446 kts 180°
2026-05-07 18:11 48.12529 2.66062 33011 ft 446 kts 180°
2026-05-07 18:12 48.06356 2.66536 33011 ft 445 kts 180°
2026-05-07 18:12 48.00151 2.67011 33007 ft 445 kts 180°
2026-05-07 18:13 47.93962 2.67484 33008 ft 445 kts 181°
2026-05-07 18:13 47.87814 2.67952 33011 ft 445 kts 181°
2026-05-07 18:14 47.81628 2.68422 33012 ft 444 kts 181°
2026-05-07 18:14 47.75444 2.68892 32988 ft 444 kts 181°
2026-05-07 18:15 47.69264 2.69359 33004 ft 444 kts 181°
2026-05-07 18:15 47.63088 2.69826 33006 ft 444 kts 181°
2026-05-07 18:16 47.56918 2.70290 33004 ft 444 kts 181°
2026-05-07 18:16 47.50785 2.70751 33005 ft 444 kts 181°
2026-05-07 18:17 47.44621 2.71213 33004 ft 444 kts 181°
2026-05-07 18:17 47.38455 2.71674 32996 ft 444 kts 181°
2026-05-07 18:18 47.32276 2.72135 32991 ft 443 kts 181°
2026-05-07 18:18 47.26116 2.72594 32994 ft 443 kts 181°
2026-05-07 18:19 47.19962 2.73051 32999 ft 443 kts 181°
2026-05-07 18:19 47.13802 2.73508 32987 ft 443 kts 181°
2026-05-07 18:20 47.07690 2.73960 32997 ft 442 kts 181°
2026-05-07 18:20 47.01528 2.74415 32994 ft 442 kts 181°
2026-05-07 18:21 46.95390 2.74866 32991 ft 441 kts 181°
2026-05-07 18:21 46.89257 2.75317 32994 ft 441 kts 181°
2026-05-07 18:22 46.83139 2.75766 32989 ft 440 kts 181°
2026-05-07 18:22 46.77013 2.76214 32991 ft 440 kts 181°
2026-05-07 18:23 46.70897 2.76660 32986 ft 440 kts 181°
2026-05-07 18:23 46.64784 2.77105 32987 ft 440 kts 181°
2026-05-07 18:24 46.58666 2.77550 32989 ft 439 kts 181°
2026-05-07 18:24 46.52591 2.77991 32975 ft 439 kts 181°
2026-05-07 18:25 46.46479 2.78433 32981 ft 439 kts 181°
2026-05-07 18:25 46.40373 2.78874 32988 ft 439 kts 181°
2026-05-07 18:26 46.34265 2.79315 32989 ft 438 kts 181°
2026-05-07 18:26 46.28207 2.79751 32978 ft 438 kts 181°
2026-05-07 18:27 46.22112 2.80189 32986 ft 438 kts 181°
2026-05-07 18:27 46.16020 2.80627 32984 ft 439 kts 181°
2026-05-07 18:28 46.09916 2.81068 32980 ft 439 kts 181°
2026-05-07 18:28 46.03816 2.81504 32992 ft 439 kts 181°
2026-05-07 18:29 45.97743 2.82762 32975 ft 447 kts 166°
2026-05-07 18:29 45.91922 2.85873 32982 ft 449 kts 163°
2026-05-07 18:30 45.86069 2.89064 32991 ft 449 kts 164°
2026-05-07 18:30 45.80209 2.92176 33000 ft 449 kts 164°
2026-05-07 18:31 45.74275 2.94861 32991 ft 444 kts 174°
2026-05-07 18:31 45.68169 2.95263 32992 ft 437 kts 185°
2026-05-07 18:32 45.62085 2.95003 32990 ft 437 kts 185°
2026-05-07 18:32 45.56006 2.94784 32990 ft 437 kts 185°
2026-05-07 18:33 45.49959 2.94607 32986 ft 436 kts 185°
2026-05-07 18:33 45.43884 2.94445 32988 ft 436 kts 185°
2026-05-07 18:34 45.37813 2.94284 32988 ft 436 kts 185°
2026-05-07 18:34 45.31780 2.94124 32975 ft 435 kts 185°
2026-05-07 18:35 45.25727 2.93963 32987 ft 435 kts 185°
2026-05-07 18:35 45.19669 2.93802 32985 ft 436 kts 185°
2026-05-07 18:36 45.13601 2.93641 32966 ft 435 kts 185°
2026-05-07 18:36 45.07535 2.93482 32973 ft 435 kts 185°
2026-05-07 18:37 45.01530 2.93324 32972 ft 434 kts 185°
2026-05-07 18:37 44.95476 2.93167 32970 ft 434 kts 185°
2026-05-07 18:38 44.89441 2.93012 32978 ft 433 kts 185°
2026-05-07 18:38 44.83403 2.92845 32975 ft 433 kts 185°
2026-05-07 18:39 44.77376 2.92428 32967 ft 432 kts 187°
2026-05-07 18:39 44.71403 2.91929 32967 ft 432 kts 187°
2026-05-07 18:40 44.65394 2.91457 32974 ft 432 kts 186°
2026-05-07 18:40 44.59373 2.91011 32966 ft 433 kts 186°
2026-05-07 18:41 44.53356 2.90573 32967 ft 433 kts 186°
2026-05-07 18:41 44.47331 2.90138 32960 ft 433 kts 186°
2026-05-07 18:42 44.41349 2.89705 32972 ft 433 kts 186°
2026-05-07 18:42 44.35333 2.89270 32961 ft 433 kts 186°
2026-05-07 18:43 44.29306 2.88836 32966 ft 432 kts 186°
2026-05-07 18:43 44.23338 2.88407 32958 ft 432 kts 186°
2026-05-07 18:44 44.17340 2.87977 32960 ft 431 kts 186°
2026-05-07 18:44 44.11356 2.87548 32958 ft 430 kts 186°
2026-05-07 18:45 44.05381 2.87123 32965 ft 429 kts 187°
2026-05-07 18:45 43.99428 2.86698 32968 ft 428 kts 186°
2026-05-07 18:46 43.93488 2.86277 32965 ft 426 kts 187°
2026-05-07 18:46 43.87582 2.85861 32964 ft 424 kts 187°
2026-05-07 18:47 43.81706 2.85447 32957 ft 422 kts 187°
2026-05-07 18:47 43.75841 2.85147 32959 ft 421 kts 185°
2026-05-07 18:48 43.69999 2.85223 32959 ft 419 kts 184°
2026-05-07 18:48 43.64212 2.85352 32971 ft 417 kts 184°
2026-05-07 18:49 43.58401 2.85461 32967 ft 417 kts 185°
2026-05-07 18:49 43.52604 2.85550 32722 ft 418 kts 185°
2026-05-07 18:49 43.49688 2.85591 32107 ft 417 kts 185°
2026-05-07 18:50 43.46784 2.85634 31399 ft 416 kts 185°
2026-05-07 18:50 43.43880 2.85676 30646 ft 417 kts 185°
2026-05-07 18:50 43.40979 2.85718 29856 ft 419 kts 185°
2026-05-07 18:50 43.38049 2.85759 28913 ft 421 kts 184°
2026-05-07 18:51 43.35131 2.85802 28343 ft 416 kts 184°
2026-05-07 18:51 43.32275 2.85846 27721 ft 413 kts 183°
2026-05-07 18:51 43.29414 2.85889 27131 ft 410 kts 183°
2026-05-07 18:51 43.26568 2.85932 26539 ft 407 kts 183°
2026-05-07 18:52 43.23749 2.85974 25965 ft 404 kts 183°
2026-05-07 18:52 43.20949 2.86014 25403 ft 401 kts 182°
2026-05-07 18:52 43.18158 2.86055 24828 ft 399 kts 182°
2026-05-07 18:52 43.15386 2.86095 24274 ft 398 kts 182°
2026-05-07 18:53 43.12622 2.86135 23699 ft 397 kts 182°
2026-05-07 18:53 43.10791 2.86161 23274 ft 397 kts 182°
2026-05-07 18:53 43.07135 2.86214 22446 ft 395 kts 182°
2026-05-07 18:53 43.04388 2.86255 21854 ft 393 kts 182°
2026-05-07 18:54 43.01662 2.86295 21282 ft 391 kts 181°
2026-05-07 18:54 42.99855 2.86322 20909 ft 390 kts 181°
2026-05-07 18:54 42.97148 2.86362 20350 ft 388 kts 181°
2026-05-07 18:54 42.93567 2.86414 19619 ft 387 kts 181°
2026-05-07 18:55 42.91755 2.86441 19247 ft 386 kts 181°
2026-05-07 18:55 42.89065 2.86481 18698 ft 385 kts 181°
2026-05-07 18:55 42.86382 2.86521 18118 ft 386 kts 181°
2026-05-07 18:55 42.83700 2.86563 17499 ft 385 kts 181°
2026-05-07 18:56 42.81058 2.86602 16927 ft 383 kts 181°
2026-05-07 18:56 42.78393 2.86640 16366 ft 381 kts 181°
2026-05-07 18:56 42.75749 2.86736 15813 ft 380 kts 176°
2026-05-07 18:56 42.73155 2.87379 15266 ft 379 kts 165°
2026-05-07 18:57 42.70645 2.88459 14754 ft 377 kts 163°
2026-05-07 18:57 42.68155 2.89565 14217 ft 376 kts 163°
2026-05-07 18:57 42.65694 2.90654 13675 ft 375 kts 163°
2026-05-07 18:57 42.63211 2.91743 13067 ft 373 kts 163°
2026-05-07 18:58 42.60737 2.92816 12499 ft 371 kts 163°
2026-05-07 18:58 42.58282 2.93877 11954 ft 369 kts 163°
2026-05-07 18:58 42.55842 2.94928 11403 ft 367 kts 163°
2026-05-07 18:58 42.53416 2.95969 10926 ft 364 kts 163°
2026-05-07 18:59 42.51045 2.96983 10788 ft 351 kts 163°
2026-05-07 18:59 42.48723 2.97868 10619 ft 340 kts 172°
2026-05-07 18:59 42.46408 2.97748 10484 ft 329 kts 192°
2026-05-07 18:59 42.44250 2.96984 10357 ft 320 kts 197°
2026-05-07 19:00 42.42145 2.96132 10214 ft 312 kts 197°
2026-05-07 19:00 42.40095 2.95292 10096 ft 304 kts 197°
2026-05-07 19:00 42.38096 2.94483 9956 ft 292 kts 197°
2026-05-07 19:00 42.36200 2.93733 9775 ft 283 kts 196°
2026-05-07 19:01 42.34289 2.92986 9403 ft 284 kts 195°
2026-05-07 19:01 42.32390 2.92250 9082 ft 283 kts 195°
2026-05-07 19:01 42.30504 2.91521 8767 ft 281 kts 195°
2026-05-07 19:01 42.28634 2.90799 8467 ft 277 kts 195°
2026-05-07 19:02 42.26807 2.90094 8174 ft 270 kts 195°
2026-05-07 19:02 42.25025 2.89407 7851 ft 270 kts 195°
2026-05-07 19:02 42.23191 2.88702 7349 ft 275 kts 195°
2026-05-07 19:02 42.21351 2.87995 6861 ft 275 kts 195°
2026-05-07 19:03 42.19508 2.87288 6364 ft 276 kts 195°
2026-05-07 19:03 42.17662 2.86580 5841 ft 276 kts 195°
2026-05-07 19:03 42.15821 2.85873 5327 ft 275 kts 195°
2026-05-07 19:03 42.13984 2.85168 4828 ft 274 kts 195°
2026-05-07 19:04 42.12152 2.84464 4400 ft 270 kts 195°
2026-05-07 19:04 42.10371 2.83763 4073 ft 263 kts 196°
2026-05-07 19:04 42.08637 2.83081 3758 ft 256 kts 195°
2026-05-07 19:04 42.06969 2.82444 3555 ft 241 kts 196°
2026-05-07 19:05 42.05379 2.81841 3214 ft 231 kts 196°
2026-05-07 19:05 42.03897 2.81275 2995 ft 216 kts 196°
2026-05-07 19:05 42.02485 2.80738 2734 ft 205 kts 196°
2026-05-07 19:05 42.01150 2.80234 2482 ft 194 kts 197°
2026-05-07 19:06 41.99880 2.79754 2215 ft 184 kts 197°
2026-05-07 19:06 41.97606 2.78894 1825 ft 154 kts 196°
2026-05-07 19:06 41.96603 2.78516 1606 ft 147 kts 196°
2026-05-07 19:07 41.95633 2.78148 1400 ft 142 kts 196°
2026-05-07 19:07 41.94686 2.77779 1165 ft 146 kts 195°
2026-05-07 19:07 41.93690 2.77410 966 ft 150 kts 195°
2026-05-07 19:07 41.92701 2.77043 792 ft 148 kts 195°
2026-05-07 19:08 41.91713 2.76668 579 ft 147 kts 195°
2026-05-07 19:08 41.90758 2.76309 462 ft 129 kts 196°
2026-05-07 19:08 41.90110 2.76062 434 ft 65 kts 196°
2026-05-07 19:08 41.89753 2.75927 412 ft 51 kts 195°